contact:dominique.lefevre@mio.osupytheas.fr, maurice.libes@osupytheas.fr, didier.mallarino@osupytheas.fr
Project:EMSO http://www.emso-fr.org/EMSO-France
Depth: 2436.0 m
Title:EMSO Ligure Ouest : Data MII capteur MICROCAT
DateTime_Computer,Latitude,Longitude,Temperature,Conductivity,Pressure,DateTime_Instrument
DateTime_Computer,Latitude,Longitude,degC,S m-1,dbar,DateTime_Instrument
2021-09-01T00:02:06Z,42.805,6.029,13.2984,4.59996,2470.264,2021-9-01T02:03:25Z
2021-09-01T00:05:09Z,42.805,6.029,13.2983,4.59996,2470.264,2021-9-01T02:06:29Z
2021-09-01T00:08:12Z,42.805,6.029,13.2982,4.59996,2470.25,2021-9-01T02:09:32Z
2021-09-01T00:11:15Z,42.805,6.029,13.2982,4.59996,2470.273,2021-9-01T02:12:35Z
2021-09-01T00:14:18Z,42.805,6.029,13.2986,4.59996,2470.287,2021-9-01T02:15:38Z
2021-09-01T00:17:21Z,42.805,6.029,13.2986,4.59996,2470.287,2021-9-01T02:18:41Z
2021-09-01T00:20:24Z,42.805,6.029,13.2989,4.59996,2470.278,2021-9-01T02:21:44Z
2021-09-01T00:23:27Z,42.805,6.029,13.2986,4.59996,2470.297,2021-9-01T02:24:47Z
2021-09-01T00:26:31Z,42.805,6.029,13.2984,4.59996,2470.264,2021-9-01T02:27:50Z
2021-09-01T00:29:34Z,42.805,6.029,13.2986,4.59996,2470.287,2021-9-01T02:30:54Z
2021-09-01T00:32:37Z,42.805,6.029,13.2986,4.59996,2470.25,2021-9-01T02:33:57Z
2021-09-01T00:35:40Z,42.805,6.029,13.2986,4.59996,2470.31,2021-9-01T02:37:00Z
2021-09-01T00:38:43Z,42.805,6.029,13.2983,4.59996,2470.25,2021-9-01T02:40:03Z
2021-09-01T00:41:46Z,42.805,6.029,13.2986,4.59997,2470.273,2021-9-01T02:43:06Z
2021-09-01T00:44:49Z,42.805,6.029,13.2979,4.59996,2470.25,2021-9-01T02:46:09Z
2021-09-01T00:47:52Z,42.805,6.029,13.2989,4.59996,2470.25,2021-9-01T02:49:12Z
2021-09-01T00:50:55Z,42.805,6.029,13.2987,4.59996,2470.273,2021-9-01T02:52:15Z
2021-09-01T00:53:59Z,42.805,6.029,13.2988,4.59996,2470.273,2021-9-01T02:55:18Z
2021-09-01T00:57:02Z,42.805,6.029,13.2984,4.59996,2470.287,2021-9-01T02:58:22Z
2021-09-01T01:00:05Z,42.805,6.029,13.2984,4.59996,2470.25,2021-9-01T03:01:25Z
2021-09-01T01:03:08Z,42.805,6.029,13.2985,4.59996,2470.273,2021-9-01T03:04:28Z
2021-09-01T01:06:11Z,42.805,6.029,13.2984,4.59996,2470.273,2021-9-01T03:07:31Z
2021-09-01T01:09:14Z,42.805,6.029,13.2983,4.59996,2470.287,2021-9-01T03:10:34Z
2021-09-01T01:12:17Z,42.805,6.029,13.2986,4.59996,2470.273,2021-9-01T03:13:37Z
2021-09-01T01:15:20Z,42.805,6.029,13.2983,4.59996,2470.273,2021-9-01T03:16:40Z
2021-09-01T01:18:24Z,42.805,6.029,13.2980,4.59996,2470.264,2021-9-01T03:19:43Z
2021-09-01T01:21:27Z,42.805,6.029,13.2984,4.59996,2470.273,2021-9-01T03:22:47Z
2021-09-01T01:24:30Z,42.805,6.029,13.2986,4.59996,2470.31,2021-9-01T03:25:50Z
2021-09-01T01:27:33Z,42.805,6.029,13.2982,4.59996,2470.273,2021-9-01T03:28:53Z
2021-09-01T01:30:36Z,42.805,6.029,13.2983,4.59996,2470.227,2021-9-01T03:31:56Z
2021-09-01T01:33:39Z,42.805,6.029,13.2987,4.59997,2470.273,2021-9-01T03:34:59Z
2021-09-01T01:36:42Z,42.805,6.029,13.2983,4.59996,2470.25,2021-9-01T03:38:02Z
2021-09-01T01:39:45Z,42.805,6.029,13.2983,4.59996,2470.297,2021-9-01T03:41:05Z
2021-09-01T01:42:48Z,42.805,6.029,13.2985,4.59996,2470.273,2021-9-01T03:44:08Z
2021-09-01T01:45:52Z,42.805,6.029,13.2982,4.59996,2470.25,2021-9-01T03:47:11Z
2021-09-01T01:48:55Z,42.805,6.029,13.2982,4.59996,2470.273,2021-9-01T03:50:15Z
2021-09-01T01:51:58Z,42.805,6.029,13.2982,4.59996,2470.287,2021-9-01T03:53:18Z
2021-09-01T01:55:01Z,42.805,6.029,13.2982,4.59996,2470.273,2021-9-01T03:56:21Z
2021-09-01T01:58:04Z,42.805,6.029,13.2984,4.59996,2470.31,2021-9-01T03:59:24Z
2021-09-01T02:01:07Z,42.805,6.029,13.2983,4.59996,2470.273,2021-9-01T04:02:27Z
2021-09-01T02:04:10Z,42.805,6.029,13.2986,4.59997,2470.297,2021-9-01T04:05:30Z
2021-09-01T02:07:13Z,42.805,6.029,13.2984,4.59998,2470.273,2021-9-01T04:08:33Z
2021-09-01T02:10:17Z,42.805,6.029,13.2986,4.59996,2470.273,2021-9-01T04:11:36Z
2021-09-01T02:13:20Z,42.805,6.029,13.2988,4.59996,2470.25,2021-9-01T04:14:40Z
2021-09-01T02:16:23Z,42.805,6.029,13.2982,4.59996,2470.297,2021-9-01T04:17:43Z
2021-09-01T02:19:26Z,42.805,6.029,13.2986,4.59997,2470.287,2021-9-01T04:20:46Z
2021-09-01T02:22:29Z,42.805,6.029,13.2982,4.59996,2470.297,2021-9-01T04:23:49Z
2021-09-01T02:25:32Z,42.805,6.029,13.2989,4.59996,2470.31,2021-9-01T04:26:52Z
2021-09-01T02:28:35Z,42.805,6.029,13.2989,4.59996,2470.287,2021-9-01T04:29:55Z
2021-09-01T02:31:38Z,42.805,6.029,13.2985,4.59996,2470.334,2021-9-01T04:32:58Z
2021-09-01T02:34:42Z,42.805,6.029,13.2986,4.59996,2470.287,2021-9-01T04:36:01Z
2021-09-01T02:37:45Z,42.805,6.029,13.2983,4.59997,2470.25,2021-9-01T04:39:04Z
2021-09-01T02:40:48Z,42.805,6.029,13.2983,4.59996,2470.287,2021-9-01T04:42:08Z
2021-09-01T02:43:51Z,42.805,6.029,13.2987,4.59995,2470.264,2021-9-01T04:45:11Z
2021-09-01T02:46:54Z,42.805,6.029,13.2980,4.59996,2470.26,2021-9-01T04:48:14Z
2021-09-01T02:49:57Z,42.805,6.029,13.2982,4.59996,2470.273,2021-9-01T04:51:17Z
2021-09-01T02:53:00Z,42.805,6.029,13.2986,4.59996,2470.25,2021-9-01T04:54:20Z
2021-09-01T02:56:03Z,42.805,6.029,13.2982,4.59996,2470.273,2021-9-01T04:57:23Z
2021-09-01T02:59:06Z,42.805,6.029,13.2988,4.59996,2470.273,2021-9-01T05:00:26Z
2021-09-01T03:02:10Z,42.805,6.029,13.2987,4.59996,2470.297,2021-9-01T05:03:29Z
2021-09-01T03:05:13Z,42.805,6.029,13.2985,4.59997,2470.273,2021-9-01T05:06:33Z
2021-09-01T03:08:16Z,42.805,6.029,13.2987,4.59996,2470.273,2021-9-01T05:09:36Z
2021-09-01T03:11:19Z,42.805,6.029,13.2984,4.59996,2470.25,2021-9-01T05:12:39Z
2021-09-01T03:14:22Z,42.805,6.029,13.2987,4.59996,2470.25,2021-9-01T05:15:42Z
2021-09-01T03:17:25Z,42.805,6.029,13.2986,4.59996,2470.297,2021-9-01T05:18:45Z
2021-09-01T03:20:28Z,42.805,6.029,13.2987,4.59997,2470.273,2021-9-01T05:21:48Z
2021-09-01T03:23:31Z,42.805,6.029,13.2983,4.59996,2470.297,2021-9-01T05:24:51Z
2021-09-01T03:26:35Z,42.805,6.029,13.2984,4.59997,2470.25,2021-9-01T05:27:54Z
2021-09-01T03:29:38Z,42.805,6.029,13.2983,4.59996,2470.287,2021-9-01T05:30:58Z
2021-09-01T03:32:41Z,42.805,6.029,13.2987,4.59996,2470.25,2021-9-01T05:34:01Z
2021-09-01T03:35:44Z,42.805,6.029,13.2990,4.59996,2470.227,2021-9-01T05:37:04Z
2021-09-01T03:38:47Z,42.805,6.029,13.2984,4.59997,2470.227,2021-9-01T05:40:07Z
2021-09-01T03:41:50Z,42.805,6.029,13.2985,4.59996,2470.297,2021-9-01T05:43:10Z
2021-09-01T03:44:53Z,42.805,6.029,13.2987,4.59996,2470.287,2021-9-01T05:46:13Z
2021-09-01T03:47:56Z,42.805,6.029,13.2987,4.59996,2470.273,2021-9-01T05:49:16Z
2021-09-01T03:50:59Z,42.805,6.029,13.2983,4.59997,2470.25,2021-9-01T05:52:19Z
2021-09-01T03:54:03Z,42.805,6.029,13.2983,4.59996,2470.264,2021-9-01T05:55:22Z
2021-09-01T03:57:06Z,42.805,6.029,13.2987,4.59997,2470.273,2021-9-01T05:58:26Z
2021-09-01T04:00:09Z,42.805,6.029,13.2984,4.59997,2470.25,2021-9-01T06:01:29Z
2021-09-01T04:03:12Z,42.805,6.029,13.2985,4.59997,2470.264,2021-9-01T06:04:32Z
2021-09-01T04:06:15Z,42.805,6.029,13.2985,4.59996,2470.227,2021-9-01T06:07:35Z
2021-09-01T04:09:18Z,42.805,6.029,13.2984,4.59996,2470.25,2021-9-01T06:10:38Z
2021-09-01T04:12:21Z,42.805,6.029,13.2985,4.59997,2470.24,2021-9-01T06:13:41Z
2021-09-01T04:15:24Z,42.805,6.029,13.2983,4.59997,2470.264,2021-9-01T06:16:44Z
2021-09-01T04:18:28Z,42.805,6.029,13.2983,4.59998,2470.273,2021-9-01T06:19:47Z
2021-09-01T04:21:31Z,42.805,6.029,13.2987,4.59996,2470.273,2021-9-01T06:22:50Z
2021-09-01T04:24:34Z,42.805,6.029,13.2986,4.59998,2470.264,2021-9-01T06:25:54Z
2021-09-01T04:27:37Z,42.805,6.029,13.2986,4.59996,2470.273,2021-9-01T06:28:57Z
2021-09-01T04:30:40Z,42.805,6.029,13.2983,4.59997,2470.25,2021-9-01T06:32:00Z
2021-09-01T04:33:43Z,42.805,6.029,13.2981,4.59997,2470.25,2021-9-01T06:35:03Z
2021-09-01T04:36:46Z,42.805,6.029,13.2988,4.59997,2470.273,2021-9-01T06:38:06Z
2021-09-01T04:39:49Z,42.805,6.029,13.2988,4.59998,2470.287,2021-9-01T06:41:09Z
2021-09-01T04:42:52Z,42.805,6.029,13.2983,4.59997,2470.264,2021-9-01T06:44:12Z
2021-09-01T04:45:56Z,42.805,6.029,13.2989,4.59996,2470.273,2021-9-01T06:47:15Z
2021-09-01T04:48:59Z,42.805,6.029,13.2986,4.59997,2470.264,2021-9-01T06:50:19Z
2021-09-01T04:52:02Z,42.805,6.029,13.2984,4.59997,2470.287,2021-9-01T06:53:22Z
2021-09-01T04:55:05Z,42.805,6.029,13.2986,4.59998,2470.283,2021-9-01T06:56:25Z
2021-09-01T04:58:08Z,42.805,6.029,13.2984,4.59996,2470.264,2021-9-01T06:59:28Z
2021-09-01T05:01:11Z,42.805,6.029,13.2983,4.59998,2470.287,2021-9-01T07:02:31Z
2021-09-01T05:04:14Z,42.805,6.029,13.2986,4.59998,2470.287,2021-9-01T07:05:34Z
2021-09-01T05:07:17Z,42.805,6.029,13.2986,4.59997,2470.25,2021-9-01T07:08:37Z
2021-09-01T05:10:20Z,42.805,6.029,13.2982,4.59997,2470.287,2021-9-01T07:11:40Z
2021-09-01T05:13:24Z,42.805,6.029,13.2984,4.59997,2470.287,2021-9-01T07:14:43Z
2021-09-01T05:16:27Z,42.805,6.029,13.2987,4.59997,2470.25,2021-9-01T07:17:47Z
2021-09-01T05:19:30Z,42.805,6.029,13.2986,4.59997,2470.25,2021-9-01T07:20:50Z
2021-09-01T05:22:33Z,42.805,6.029,13.2986,4.59999,2470.25,2021-9-01T07:23:53Z
2021-09-01T05:25:36Z,42.805,6.029,13.2983,4.59997,2470.273,2021-9-01T07:26:56Z
2021-09-01T05:28:39Z,42.805,6.029,13.2986,4.59996,2470.273,2021-9-01T07:29:59Z
2021-09-01T05:31:42Z,42.805,6.029,13.2986,4.59998,2470.25,2021-9-01T07:33:02Z
2021-09-01T05:34:45Z,42.805,6.029,13.2984,4.59998,2470.264,2021-9-01T07:36:05Z
2021-09-01T05:37:49Z,42.805,6.029,13.2984,4.59997,2470.264,2021-9-01T07:39:08Z
2021-09-01T05:40:52Z,42.805,6.029,13.2987,4.59998,2470.273,2021-9-01T07:42:12Z
2021-09-01T05:43:55Z,42.805,6.029,13.2983,4.59996,2470.227,2021-9-01T07:45:15Z
2021-09-01T05:46:58Z,42.805,6.029,13.2988,4.59997,2470.25,2021-9-01T07:48:18Z
2021-09-01T05:50:01Z,42.805,6.029,13.2989,4.59998,2470.25,2021-9-01T07:51:21Z
2021-09-01T05:53:04Z,42.805,6.029,13.2986,4.59996,2470.273,2021-9-01T07:54:24Z
2021-09-01T05:56:07Z,42.805,6.029,13.2983,4.59998,2470.264,2021-9-01T07:57:27Z
2021-09-01T05:59:10Z,42.805,6.029,13.2986,4.59997,2470.297,2021-9-01T08:00:30Z
2021-09-01T06:02:13Z,42.805,6.029,13.2987,4.59997,2470.287,2021-9-01T08:03:33Z
2021-09-01T06:05:17Z,42.805,6.029,13.2986,4.59997,2470.273,2021-9-01T08:06:36Z
2021-09-01T06:08:20Z,42.805,6.029,13.2986,4.59997,2470.25,2021-9-01T08:09:40Z
2021-09-01T06:11:23Z,42.805,6.029,13.2986,4.59997,2470.24,2021-9-01T08:12:43Z
2021-09-01T06:14:26Z,42.805,6.029,13.2984,4.59998,2470.25,2021-9-01T08:15:46Z
2021-09-01T06:17:29Z,42.805,6.029,13.2987,4.59997,2470.287,2021-9-01T08:18:49Z
2021-09-01T06:20:32Z,42.805,6.029,13.2986,4.59997,2470.264,2021-9-01T08:21:52Z
2021-09-01T06:23:35Z,42.805,6.029,13.2986,4.59998,2470.227,2021-9-01T08:24:55Z
2021-09-01T06:26:38Z,42.805,6.029,13.2985,4.59997,2470.264,2021-9-01T08:27:58Z
2021-09-01T06:29:42Z,42.805,6.029,13.2986,4.59998,2470.24,2021-9-01T08:31:01Z
2021-09-01T06:32:45Z,42.805,6.029,13.2985,4.59998,2470.25,2021-9-01T08:34:05Z
2021-09-01T06:35:48Z,42.805,6.029,13.2983,4.59996,2470.25,2021-9-01T08:37:08Z
2021-09-01T06:38:51Z,42.805,6.029,13.2982,4.59997,2470.203,2021-9-01T08:40:11Z
2021-09-01T06:41:54Z,42.805,6.029,13.2984,4.59996,2470.227,2021-9-01T08:43:14Z
2021-09-01T06:44:57Z,42.805,6.029,13.2982,4.59996,2470.25,2021-9-01T08:46:17Z
2021-09-01T06:48:00Z,42.805,6.029,13.2986,4.59997,2470.25,2021-9-01T08:49:20Z
2021-09-01T06:51:03Z,42.805,6.029,13.2986,4.59997,2470.25,2021-9-01T08:52:23Z
2021-09-01T06:54:06Z,42.805,6.029,13.2986,4.59997,2470.264,2021-9-01T08:55:26Z
2021-09-01T06:57:10Z,42.805,6.029,13.2985,4.59996,2470.203,2021-9-01T08:58:29Z
2021-09-01T07:00:13Z,42.805,6.029,13.2984,4.59999,2470.227,2021-9-01T09:01:33Z
2021-09-01T07:03:16Z,42.805,6.029,13.2990,4.59997,2470.203,2021-9-01T09:04:36Z
2021-09-01T07:06:19Z,42.805,6.029,13.2984,4.59998,2470.24,2021-9-01T09:07:39Z
2021-09-01T07:09:22Z,42.805,6.029,13.2986,4.59998,2470.227,2021-9-01T09:10:42Z
2021-09-01T07:12:25Z,42.805,6.029,13.2987,4.59998,2470.25,2021-9-01T09:13:45Z
2021-09-01T07:15:28Z,42.805,6.029,13.2985,4.59998,2470.203,2021-9-01T09:16:48Z
2021-09-01T07:18:31Z,42.805,6.029,13.2986,4.59997,2470.227,2021-9-01T09:19:51Z
2021-09-01T07:21:35Z,42.805,6.029,13.2985,4.59996,2470.24,2021-9-01T09:22:54Z
2021-09-01T07:24:38Z,42.805,6.029,13.2986,4.59997,2470.25,2021-9-01T09:25:58Z
2021-09-01T07:27:41Z,42.805,6.029,13.2989,4.59997,2470.203,2021-9-01T09:29:01Z
2021-09-01T07:30:44Z,42.805,6.029,13.2988,4.59998,2470.24,2021-9-01T09:32:04Z
2021-09-01T07:33:47Z,42.805,6.029,13.2989,4.59997,2470.203,2021-9-01T09:35:07Z
2021-09-01T07:36:50Z,42.805,6.029,13.2983,4.59997,2470.227,2021-9-01T09:38:10Z
2021-09-01T07:39:53Z,42.805,6.029,13.2986,4.59998,2470.227,2021-9-01T09:41:13Z
2021-09-01T07:42:56Z,42.805,6.029,13.2989,4.59998,2470.264,2021-9-01T09:44:16Z
2021-09-01T07:45:59Z,42.805,6.029,13.2984,4.59996,2470.227,2021-9-01T09:47:19Z
2021-09-01T07:49:03Z,42.805,6.029,13.2986,4.59998,2470.203,2021-9-01T09:50:22Z
2021-09-01T07:52:06Z,42.805,6.029,13.2986,4.59996,2470.227,2021-9-01T09:53:26Z
2021-09-01T07:55:09Z,42.805,6.029,13.2987,4.59996,2470.227,2021-9-01T09:56:29Z
2021-09-01T07:58:12Z,42.805,6.029,13.2982,4.59997,2470.24,2021-9-01T09:59:32Z
2021-09-01T08:01:15Z,42.805,6.029,13.2986,4.59997,2470.227,2021-9-01T10:02:35Z
2021-09-01T08:04:18Z,42.805,6.029,13.2989,4.59998,2470.25,2021-9-01T10:05:38Z
2021-09-01T08:07:21Z,42.805,6.029,13.2987,4.59996,2470.25,2021-9-01T10:08:41Z
2021-09-01T08:10:24Z,42.805,6.029,13.2983,4.59996,2470.25,2021-9-01T10:11:44Z
2021-09-01T08:13:28Z,42.805,6.029,13.2986,4.59996,2470.227,2021-9-01T10:14:47Z
2021-09-01T08:16:31Z,42.805,6.029,13.2983,4.59997,2470.25,2021-9-01T10:17:51Z
2021-09-01T08:19:34Z,42.805,6.029,13.2988,4.59996,2470.24,2021-9-01T10:20:54Z
2021-09-01T08:22:37Z,42.805,6.029,13.2984,4.59997,2470.287,2021-9-01T10:23:57Z
2021-09-01T08:25:40Z,42.805,6.029,13.2985,4.59997,2470.24,2021-9-01T10:27:00Z
2021-09-01T08:28:43Z,42.805,6.029,13.2983,4.59997,2470.227,2021-9-01T10:30:03Z
2021-09-01T08:31:46Z,42.805,6.029,13.2986,4.59996,2470.227,2021-9-01T10:33:06Z
2021-09-01T08:34:49Z,42.805,6.029,13.2986,4.59997,2470.25,2021-9-01T10:36:09Z
2021-09-01T08:37:53Z,42.805,6.029,13.2985,4.59996,2470.264,2021-9-01T10:39:12Z
2021-09-01T08:40:56Z,42.805,6.029,13.2985,4.59998,2470.227,2021-9-01T10:42:16Z
2021-09-01T08:43:59Z,42.805,6.029,13.2986,4.59996,2470.227,2021-9-01T10:45:19Z
2021-09-01T08:47:02Z,42.805,6.029,13.2987,4.59996,2470.18,2021-9-01T10:48:22Z
2021-09-01T08:50:05Z,42.805,6.029,13.2985,4.59998,2470.227,2021-9-01T10:51:25Z
2021-09-01T08:53:08Z,42.805,6.029,13.2986,4.59996,2470.203,2021-9-01T10:54:28Z
2021-09-01T08:56:11Z,42.805,6.029,13.2985,4.59998,2470.227,2021-9-01T10:57:31Z
2021-09-01T08:59:14Z,42.805,6.029,13.2983,4.59997,2470.25,2021-9-01T11:00:34Z
2021-09-01T09:02:18Z,42.805,6.029,13.2986,4.59997,2470.24,2021-9-01T11:03:37Z
2021-09-01T09:05:21Z,42.805,6.029,13.2982,4.59997,2470.24,2021-9-01T11:06:41Z
2021-09-01T09:08:24Z,42.805,6.029,13.2985,4.59998,2470.25,2021-9-01T11:09:44Z
2021-09-01T09:11:27Z,42.805,6.029,13.2985,4.59998,2470.227,2021-9-01T11:12:47Z
2021-09-01T09:14:30Z,42.805,6.029,13.2987,4.59999,2470.217,2021-9-01T11:15:50Z
2021-09-01T09:17:33Z,42.805,6.029,13.2984,4.59998,2470.25,2021-9-01T11:18:53Z
2021-09-01T09:20:36Z,42.805,6.029,13.2987,4.59996,2470.273,2021-9-01T11:21:56Z
2021-09-01T09:23:39Z,42.805,6.029,13.2982,4.59998,2470.227,2021-9-01T11:24:59Z
2021-09-01T09:26:42Z,42.805,6.029,13.2986,4.59998,2470.227,2021-9-01T11:28:02Z
2021-09-01T09:29:46Z,42.805,6.029,13.2983,4.59997,2470.227,2021-9-01T11:31:05Z
2021-09-01T09:32:49Z,42.805,6.029,13.2985,4.59997,2470.24,2021-9-01T11:34:09Z
2021-09-01T09:35:52Z,42.805,6.029,13.2986,4.59996,2470.264,2021-9-01T11:37:12Z
2021-09-01T09:38:55Z,42.805,6.029,13.2988,4.59997,2470.227,2021-9-01T11:40:15Z
2021-09-01T09:41:58Z,42.805,6.029,13.2985,4.59996,2470.264,2021-9-01T11:43:18Z
2021-09-01T09:45:01Z,42.805,6.029,13.2987,4.59997,2470.25,2021-9-01T11:46:21Z
2021-09-01T09:48:04Z,42.805,6.029,13.2982,4.59999,2470.24,2021-9-01T11:49:24Z
2021-09-01T09:51:08Z,42.805,6.029,13.2990,4.59997,2470.203,2021-9-01T11:52:27Z
2021-09-01T09:54:11Z,42.805,6.029,13.2985,4.59998,2470.264,2021-9-01T11:55:30Z
2021-09-01T09:57:14Z,42.805,6.029,13.2982,4.59997,2470.25,2021-9-01T11:58:34Z
2021-09-01T10:00:17Z,42.805,6.029,13.2984,4.59997,2470.264,2021-9-01T12:01:37Z
2021-09-01T10:03:20Z,42.805,6.029,13.2986,4.59996,2470.227,2021-9-01T12:04:40Z
2021-09-01T10:06:23Z,42.805,6.029,13.2985,4.59997,2470.227,2021-9-01T12:07:43Z
2021-09-01T10:09:26Z,42.805,6.029,13.2984,4.59999,2470.25,2021-9-01T12:10:46Z
2021-09-01T10:12:29Z,42.805,6.029,13.2984,4.59997,2470.264,2021-9-01T12:13:49Z
2021-09-01T10:15:32Z,42.805,6.029,13.2985,4.59998,2470.227,2021-9-01T12:16:52Z
2021-09-01T10:18:36Z,42.805,6.029,13.2986,4.59997,2470.227,2021-9-01T12:19:55Z
2021-09-01T10:21:39Z,42.805,6.029,13.2986,4.59998,2470.25,2021-9-01T12:22:59Z
2021-09-01T10:24:42Z,42.805,6.029,13.2988,4.59997,2470.264,2021-9-01T12:26:02Z
2021-09-01T10:27:45Z,42.805,6.029,13.2987,4.59997,2470.227,2021-9-01T12:29:05Z
2021-09-01T10:30:48Z,42.805,6.029,13.2986,4.59998,2470.24,2021-9-01T12:32:08Z
2021-09-01T10:33:51Z,42.805,6.029,13.2982,4.59998,2470.297,2021-9-01T12:35:11Z
2021-09-01T10:36:54Z,42.805,6.029,13.2988,4.60000,2470.227,2021-9-01T12:38:14Z
2021-09-01T10:39:58Z,42.805,6.029,13.2986,4.59998,2470.25,2021-9-01T12:41:17Z
2021-09-01T10:43:01Z,42.805,6.029,13.2988,4.59997,2470.227,2021-9-01T12:44:21Z
2021-09-01T10:46:04Z,42.805,6.029,13.2986,4.59998,2470.25,2021-9-01T12:47:24Z
2021-09-01T10:49:07Z,42.805,6.029,13.2985,4.59997,2470.273,2021-9-01T12:50:27Z
2021-09-01T10:52:10Z,42.805,6.029,13.2990,4.59997,2470.273,2021-9-01T12:53:30Z
2021-09-01T10:55:13Z,42.805,6.029,13.2985,4.59997,2470.24,2021-9-01T12:56:33Z
2021-09-01T10:58:16Z,42.805,6.029,13.2986,4.59997,2470.227,2021-9-01T12:59:36Z
2021-09-01T11:01:19Z,42.805,6.029,13.2988,4.59996,2470.287,2021-9-01T13:02:39Z
2021-09-01T11:04:22Z,42.805,6.029,13.2986,4.59997,2470.25,2021-9-01T13:05:42Z
2021-09-01T11:07:26Z,42.805,6.029,13.2989,4.59997,2470.25,2021-9-01T13:08:45Z
2021-09-01T11:10:29Z,42.805,6.029,13.2987,4.59999,2470.297,2021-9-01T13:11:49Z
2021-09-01T11:13:32Z,42.805,6.029,13.2988,4.59998,2470.287,2021-9-01T13:14:52Z
2021-09-01T11:16:35Z,42.805,6.029,13.2982,4.59997,2470.25,2021-9-01T13:17:55Z
2021-09-01T11:19:38Z,42.805,6.029,13.2983,4.59999,2470.273,2021-9-01T13:20:58Z
2021-09-01T11:22:41Z,42.805,6.029,13.2986,4.59997,2470.273,2021-9-01T13:24:01Z
2021-09-01T11:25:44Z,42.805,6.029,13.2990,4.59999,2470.264,2021-9-01T13:27:04Z
2021-09-01T11:28:47Z,42.805,6.029,13.2984,4.59997,2470.25,2021-9-01T13:30:07Z
2021-09-01T11:31:51Z,42.805,6.029,13.2986,4.59997,2470.273,2021-9-01T13:33:10Z
2021-09-01T11:34:54Z,42.805,6.029,13.2988,4.59996,2470.273,2021-9-01T13:36:14Z
2021-09-01T11:37:57Z,42.805,6.029,13.2984,4.59998,2470.287,2021-9-01T13:39:17Z
2021-09-01T11:41:00Z,42.805,6.029,13.2985,4.59998,2470.32,2021-9-01T13:42:20Z
2021-09-01T11:44:03Z,42.805,6.029,13.2984,4.59998,2470.31,2021-9-01T13:45:23Z
2021-09-01T11:47:06Z,42.805,6.029,13.2987,4.59996,2470.273,2021-9-01T13:48:26Z
2021-09-01T11:50:09Z,42.805,6.029,13.2982,4.59998,2470.273,2021-9-01T13:51:29Z
2021-09-01T11:53:12Z,42.805,6.029,13.2983,4.59997,2470.264,2021-9-01T13:54:32Z
2021-09-01T11:56:16Z,42.805,6.029,13.2986,4.59997,2470.273,2021-9-01T13:57:35Z
2021-09-01T11:59:19Z,42.805,6.029,13.2988,4.59998,2470.273,2021-9-01T14:00:39Z
2021-09-01T12:02:22Z,42.805,6.029,13.2987,4.59997,2470.273,2021-9-01T14:03:42Z
2021-09-01T12:05:25Z,42.805,6.029,13.2986,4.59998,2470.273,2021-9-01T14:06:45Z
2021-09-01T12:08:28Z,42.805,6.029,13.2984,4.59997,2470.297,2021-9-01T14:09:48Z
2021-09-01T12:11:31Z,42.805,6.029,13.2986,4.59997,2470.273,2021-9-01T14:12:51Z
2021-09-01T12:14:34Z,42.805,6.029,13.2985,4.59997,2470.297,2021-9-01T14:15:54Z
2021-09-01T12:17:37Z,42.805,6.029,13.2986,4.59997,2470.273,2021-9-01T14:18:57Z
2021-09-01T12:20:41Z,42.805,6.029,13.2983,4.59998,2470.32,2021-9-01T14:22:00Z
2021-09-01T12:23:44Z,42.805,6.029,13.2986,4.59997,2470.287,2021-9-01T14:25:04Z
2021-09-01T12:26:47Z,42.805,6.029,13.2983,4.59997,2470.297,2021-9-01T14:28:07Z
2021-09-01T12:29:50Z,42.805,6.029,13.2989,4.59997,2470.32,2021-9-01T14:31:10Z
2021-09-01T12:32:53Z,42.805,6.029,13.2987,4.59999,2470.32,2021-9-01T14:34:13Z
2021-09-01T12:35:56Z,42.805,6.029,13.2985,4.59997,2470.32,2021-9-01T14:37:16Z
2021-09-01T12:38:59Z,42.805,6.029,13.2986,4.59996,2470.32,2021-9-01T14:40:19Z
2021-09-01T12:42:02Z,42.805,6.029,13.2982,4.59997,2470.297,2021-9-01T14:43:22Z
2021-09-01T12:45:06Z,42.805,6.029,13.2989,4.59998,2470.343,2021-9-01T14:46:25Z
2021-09-01T12:48:09Z,42.805,6.029,13.2986,4.59997,2470.343,2021-9-01T14:49:29Z
2021-09-01T12:51:12Z,42.805,6.029,13.2986,4.59998,2470.33,2021-9-01T14:52:32Z
2021-09-01T12:54:15Z,42.805,6.029,13.2984,4.59998,2470.32,2021-9-01T14:55:35Z
2021-09-01T12:57:18Z,42.805,6.029,13.2986,4.59997,2470.343,2021-9-01T14:58:38Z
2021-09-01T13:00:21Z,42.805,6.029,13.2987,4.59997,2470.32,2021-9-01T15:01:41Z
2021-09-01T13:03:24Z,42.805,6.029,13.2990,4.59997,2470.32,2021-9-01T15:04:44Z
2021-09-01T13:06:27Z,42.805,6.029,13.2987,4.59998,2470.32,2021-9-01T15:07:47Z
2021-09-01T13:09:31Z,42.805,6.029,13.2988,4.59997,2470.334,2021-9-01T15:10:50Z
2021-09-01T13:12:34Z,42.805,6.029,13.2983,4.59998,2470.297,2021-9-01T15:13:54Z
2021-09-01T13:15:37Z,42.805,6.029,13.2985,4.59998,2470.357,2021-9-01T15:16:57Z
2021-09-01T13:18:40Z,42.805,6.029,13.2983,4.59997,2470.38,2021-9-01T15:20:00Z
2021-09-01T13:21:43Z,42.805,6.029,13.2989,4.59997,2470.31,2021-9-01T15:23:03Z
2021-09-01T13:24:46Z,42.805,6.029,13.2987,4.59997,2470.334,2021-9-01T15:26:06Z
2021-09-01T13:27:49Z,42.805,6.029,13.2983,4.59998,2470.357,2021-9-01T15:29:09Z
2021-09-01T13:30:52Z,42.805,6.029,13.2988,4.59997,2470.32,2021-9-01T15:32:12Z
2021-09-01T13:33:55Z,42.805,6.029,13.2986,4.59998,2470.32,2021-9-01T15:35:15Z
2021-09-01T13:36:59Z,42.805,6.029,13.2989,4.59997,2470.306,2021-9-01T15:38:19Z
2021-09-01T13:40:02Z,42.805,6.029,13.2987,4.59997,2470.343,2021-9-01T15:41:22Z
2021-09-01T13:43:05Z,42.805,6.029,13.2983,4.59997,2470.343,2021-9-01T15:44:25Z
2021-09-01T13:46:08Z,42.805,6.029,13.2988,4.59997,2470.357,2021-9-01T15:47:28Z
2021-09-01T13:49:11Z,42.805,6.029,13.2985,4.59998,2470.32,2021-9-01T15:50:31Z
2021-09-01T13:52:14Z,42.805,6.029,13.2987,4.59997,2470.343,2021-9-01T15:53:34Z
2021-09-01T13:55:17Z,42.805,6.029,13.2991,4.59997,2470.343,2021-9-01T15:56:37Z
2021-09-01T13:58:21Z,42.805,6.029,13.2982,4.59997,2470.38,2021-9-01T15:59:40Z
2021-09-01T14:01:24Z,42.805,6.029,13.2989,4.59997,2470.32,2021-9-01T16:02:44Z
2021-09-01T14:04:27Z,42.805,6.029,13.2986,4.59998,2470.32,2021-9-01T16:05:47Z
2021-09-01T14:07:30Z,42.805,6.029,13.2983,4.59997,2470.343,2021-9-01T16:08:50Z
2021-09-01T14:10:33Z,42.805,6.029,13.2990,4.59997,2470.357,2021-9-01T16:11:53Z
2021-09-01T14:13:36Z,42.805,6.029,13.2986,4.59998,2470.343,2021-9-01T16:14:56Z
2021-09-01T14:16:39Z,42.805,6.029,13.2988,4.59999,2470.32,2021-9-01T16:17:59Z
2021-09-01T14:19:42Z,42.805,6.029,13.2986,4.59999,2470.343,2021-9-01T16:21:02Z
2021-09-01T14:22:45Z,42.805,6.029,13.2985,4.59997,2470.366,2021-9-01T16:24:05Z
2021-09-01T14:25:49Z,42.805,6.029,13.2988,4.59997,2470.366,2021-9-01T16:27:08Z
2021-09-01T14:28:52Z,42.805,6.029,13.2987,4.59998,2470.343,2021-9-01T16:30:12Z
2021-09-01T14:31:55Z,42.805,6.029,13.2983,4.59998,2470.366,2021-9-01T16:33:15Z
2021-09-01T14:34:58Z,42.805,6.029,13.2983,4.59997,2470.38,2021-9-01T16:36:18Z
2021-09-01T14:38:01Z,42.805,6.029,13.2983,4.59998,2470.343,2021-9-01T16:39:21Z
2021-09-01T14:41:04Z,42.805,6.029,13.2986,4.59997,2470.353,2021-9-01T16:42:24Z
2021-09-01T14:44:07Z,42.805,6.029,13.2986,4.59997,2470.366,2021-9-01T16:45:27Z
2021-09-01T14:47:10Z,42.805,6.029,13.2984,4.59999,2470.39,2021-9-01T16:48:30Z
2021-09-01T14:50:14Z,42.805,6.029,13.2986,4.59998,2470.357,2021-9-01T16:51:34Z
2021-09-01T14:53:17Z,42.805,6.029,13.2988,4.59998,2470.366,2021-9-01T16:54:37Z
2021-09-01T14:56:20Z,42.805,6.029,13.2984,4.59997,2470.343,2021-9-01T16:57:40Z
2021-09-01T14:59:23Z,42.805,6.029,13.2986,4.59996,2470.366,2021-9-01T17:00:43Z
2021-09-01T15:02:26Z,42.805,6.029,13.2985,4.59998,2470.366,2021-9-01T17:03:46Z
2021-09-01T15:05:29Z,42.805,6.029,13.2986,4.59997,2470.343,2021-9-01T17:06:49Z
2021-09-01T15:08:32Z,42.805,6.029,13.2983,4.59998,2470.38,2021-9-01T17:09:52Z
2021-09-01T15:11:35Z,42.805,6.029,13.2986,4.59998,2470.343,2021-9-01T17:12:55Z
2021-09-01T15:14:39Z,42.805,6.029,13.2983,4.59999,2470.38,2021-9-01T17:15:58Z